Regional Weather Roundup
Issued by NWS New Orleans/Baton Rouge, LA

Home | Current Version | Previous Version | Graphics & Text | Print | Product List | Glossary On
Versions: 1 2 3 4 5 6 7 8 9 10 11 12 13 14 15 16 17 18 19 20 21 22 23 24 25 26 27 28 29 30 31 32 33 34 35 36 37 38 39 40 41 42 43 44 45 46 47 48 49 50
894
ASUS44 KLIX 202205
RWRLIX
NEW ORLEANS REGIONAL WEATHER ROUNDUP
NATIONAL WEATHER SERVICE NEW ORLEANS LA
500 PM CDT WED AUG 20 2014

NOTE: "FAIR" INDICATES FEW OR NO CLOUDS BELOW 12,000 FEET WITH NO
      SIGNIFICANT WEATHER AND/OR OBSTRUCTIONS TO VISIBILITY.
      SKY/WX - SKY CONDITION AND SIGNIFICANT WEATHER.
      TMP - AIR TEMPERATURE.     DP    - DEWPOINT TEMPERATURE.
      RH  - RELATIVE HUMIDITY.   PRES  - PRESSURE.
      HI  - HEAT INDEX.          WCI   - WIND CHILL INDEX.

*  THESE STATIONS ARE NOT NWS OR FAA STATIONS AND ARE NOT UNDER
   NWS QUALITY CONTROL.

LAZ038-040-048-061>063-065>067-069-202300-
SOUTHEAST LOUISIANA

CITY           SKY/WX    TMP DP  RH WIND       PRES   REMARKS
N.O. AUDUBON   NOT AVBL
N.O. INTL ARPT CLOUDY    84  73  69 S7        30.05S
N.O. LAKEFRONT PTSUNNY   86  73  65 SE7       30.05F
N.O. DOWNTOWN*   N/A     88  72  58 S3        30.06R
SLIDELL        PTSUNNY   91  71  51 S10       30.03S HX  97
BATON ROUGE    CLOUDY    80  73  79 CALM      30.06R
BOOTHVILLE     PTSUNNY   88  75  65 S7        30.06S HX  97
BELLE CHASSE   CLOUDY    85  71  63 E3        30.05S
BOGALUSA*      MOCLDY    95  71  46 CALM      30.04S HX 102
GALLIANO*      NOT AVBL
NEW ROADS*       N/A     79  73  80 CALM      30.06R
GONZALES*        N/A     76  75  96 CALM      30.04F
HAMMOND*       PTSUNNY   82  72  69 CALM      30.07R
HOUMA*         LGT RAIN  75  72  88 W8        30.06S
PORT FOURCHON* CLEAR     88  75  66 S9        30.07S HX  97

$$

MSZ070-080>082-202300-
SOUTHERN MISSISSIPPI

CITY           SKY/WX    TMP DP  RH WIND       PRES   REMARKS
MCCOMB         SUNNY     93  69  45 S8        30.04S HX  98
GULFPORT       PTSUNNY   89  74  60 S8        30.04S HX  98
BILOXI         MOSUNNY   90  77  65 S12       30.05R HX 102
PASCAGOULA     MOSUNNY   87  74  64 S7        30.04S HX  95
STENNIS ARPT*  MOSUNNY  N/A N/A N/A S5        30.04S

$$

COASTAL OBSERVATIONS
LAKE AND NEARSHORE STATIONS

STATION/POSITION TIME  TEMP    WIND        PRES    WAVE
                       AIR SEA DIR/SP/G            HT/PER
                 (UTC) (F)     (DEG/KT/KT) (MB)    (FT/S)
PASCAGOULA       2200   90     180/  7/ 10 1017.2
WAVELAND YACHT   2200   87     180/  7/ 11 1016.9
GRAND ISLE       2200   88 88  160/  4/  7 1018.2
SOUTHWEST PASS   2200   88 90  190/  6/  9 1018.3
NEW CANAL        2200   86 85  190/  5/  6 1018.0
SHELL BEACH      2200   85 83  190/  3/  5 1017.5

OFFSHORE STATIONS

STATION/POSITION TIME  TEMP    WIND        PRES    WAVE
                       AIR SEA DIR/SP/G            HT/PER
                 (UTC) (F)     (DEG/KT/KT) (MB)    (FT/S)
64 S DAUPHIN ISL 2148   87 91  200/  4/  6 1018.5

$$




USA.gov is the U.S. government's official web portal to all federal, state and local government web resources and services.